FW1524 Weather Reports


time (UTC)temp
F
wind
direction
speed
knots
gust
knots
rain 1hr
in
rain 24hr
in
rain mn
in
humidity
%
barometer
mb
20260506231629 49 245 0.0 0.0 0.00 0.33 0.33 1 1008.8
20260506230036 49 234 0.0 0.0 0.00 0.33 0.33 1 1008.6
20260506224535 49 279 0.0 0.0 0.00 0.33 0.33 1 1008.5
20260506223026 49 24 0.0 0.0 0.00 0.34 0.33 1 1008.1
20260506221620 49 238 0.0 0.0 0.00 0.34 0.33 1 1007.9
20260506220005 49 11 0.0 0.0 0.00 0.34 0.33 1 1007.9
20260506214502 50 315 0.0 0.0 0.00 0.34 0.33 1 1008.0
20260506213057 50 26 0.0 3.5 0.00 0.34 0.33 1 1007.8
20260506211553 50 228 0.0 0.0 0.00 0.34 0.33 1 1007.3
20260506210058 50 242 0.0 0.0 0.00 0.34 0.33 1 1007.1
20260506204553 50 265 0.0 0.0 0.00 0.34 0.33 1 1006.9
20260506203053 50 52 0.0 0.0 0.01 0.42 0.33 1 1006.6
20260506201607 51 17 0.0 0.0 0.02 0.42 0.33 1 1005.9
20260506200035 51 34 0.0 0.0 0.02 0.42 0.33 1 1006.0
20260506194540 51 60 0.0 0.0 0.02 0.42 0.33 1 1005.9
20260506193033 51 229 0.0 0.0 0.01 0.41 0.32 1 1005.9
20260506191526 52 38 0.0 0.0 0.00 0.40 0.31 1 1005.5
20260506190054 52 40 0.0 0.0 0.00 0.40 0.31 1 1005.2
20260506184553 53 24 0.0 0.9 0.00 0.40 0.31 1 1005.1
20260506183046 54 19 0.0 0.0 0.01 0.40 0.31 1 1005.0
20260506181541 56 250 0.0 0.0 0.01 0.40 0.31 1 1004.4
20260506180044 57 225 0.0 0.0 0.01 0.40 0.31 1 1004.3
20260506174540 59 213 0.0 0.9 0.01 0.40 0.31 1 1003.8
20260506173043 59 234 0.0 0.0 0.00 0.41 0.30 1 1003.6
20260506171543 59 155 0.0 0.0 0.00 0.41 0.30 1 1003.6
20260506170001 59 155 0.0 0.0 0.00 0.41 0.30 1 1003.7
20260506164556 59 254 0.0 0.0 0.00 0.41 0.30 1 1003.7
20260506163102 58 24 0.0 0.0 0.01 0.41 0.30 1 1003.8
20260506161548 58 221 0.0 0.9 0.03 0.41 0.30 1 1003.6
20260506160059 58 78 0.0 0.0 0.04 0.41 0.30 1 1003.9
20260506154600 58 78 0.0 0.0 0.05 0.41 0.30 1 1004.0
20260506153049 58 78 0.0 0.0 0.05 0.40 0.28 1 1003.8
20260506151544 58 78 0.0 0.0 0.03 0.38 0.27 1 1004.2
20260506150032 58 78 0.0 0.0 0.03 0.37 0.26 1 1003.9
20260506144527 57 78 0.0 0.0 0.04 0.37 0.26 1 1003.7
20260506143023 57 78 0.0 0.0 0.05 0.36 0.25 1 1003.9
20260506141518 57 78 0.0 0.0 0.08 0.35 0.24 1 1003.9
20260506140042 57 78 0.0 0.0 0.10 0.35 0.24 1 1004.0
20260506134530 56 78 0.0 0.0 0.12 0.33 0.22 1 1004.2
20260506133028 56 78 0.0 0.0 0.13 0.31 0.20 1 1004.5
20260506131524 56 76 0.0 0.0 0.11 0.27 0.16 1 1004.9
20260506130016 55 76 0.0 0.0 0.10 0.26 0.15 1 1005.1
20260506124512 55 76 0.0 0.0 0.06 0.21 0.10 1 1005.0
20260506123008 54 77 0.0 0.0 0.04 0.19 0.08 1 1004.7
20260506121504 54 76 0.0 0.0 0.02 0.16 0.05 1 1004.7
20260506120107 54 76 0.0 0.0 0.02 0.16 0.05 1 1004.6
20260506114558 54 76 0.0 0.0 0.02 0.16 0.05 1 1005.0
20260506113043 53 76 0.0 0.0 0.02 0.18 0.04 1 1005.0
20260506111542 53 76 0.0 0.0 0.02 0.17 0.03 1 1005.0
20260506110022 53 76 0.0 0.0 0.02 0.17 0.03 1 1005.2
20260506104517 53 76 0.0 0.0 0.02 0.17 0.03 1 1005.3
20260506103020 53 76 0.0 0.0 0.01 0.16 0.02 1 1005.0
20260506101509 53 77 0.0 0.0 0.02 0.16 0.02 1 1004.9
20260506100016 53 77 0.0 0.0 0.01 0.15 0.01 1 1004.5
20260506094512 54 77 0.0 0.0 0.01 0.15 0.01 1 1004.7
20260506093012 54 77 0.0 0.0 0.01 0.15 0.01 1 1004.6
20260506091503 54 77 0.0 0.0 0.01 0.15 0.01 1 1004.8
20260506090128 54 77 0.0 0.0 0.00 0.14 0.00 1 1004.9
20260506084554 54 77 0.0 0.0 0.00 0.14 0.00 1 1005.2
20260506083048 55 71 0.0 0.0 0.00 0.14 0.00 1 1005.4
20260506081544 55 71 0.0 0.0 0.00 0.14 0.00 1 1005.1
20260506073029 55 71 0.0 0.0 0.00 0.14 0.00 1 1005.0
20260506071526 55 71 0.0 0.0 0.00 0.14 0.00 1 1005.1
20260506061509 55 46 0.0 0.0 0.00 0.14 0.00 1 1005.7
20260506044547 56 15 0.0 0.0 0.00 0.14 0.00 1 1007.0
20260506043050 57 15 0.0 0.0 0.00 0.14 0.14 1 1006.9
20260506041545 57 15 0.0 0.0 0.00 0.14 0.14 1 1006.9
20260506040030 58 15 0.0 0.0 0.00 0.14 0.14 1 1007.0
20260506034525 58 13 0.0 0.0 0.00 0.14 0.14 1 1007.4
20260506033020 58 20 0.0 0.0 0.00 0.14 0.14 1 1007.6
20260506031519 59 28 0.0 0.0 0.00 0.14 0.14 1 1007.2
20260506030020 59 22 0.0 0.0 0.00 0.14 0.14 1 1007.2
20260506024517 60 56 0.0 0.9 0.00 0.14 0.14 1 1007.1
20260506023011 60 14 0.0 0.9 0.00 0.14 0.14 1 1007.0
20260506021507 61 348 0.0 0.0 0.00 0.14 0.14 1 1006.6
20260506020013 61 344 0.0 0.0 0.00 0.14 0.14 1 1006.4
20260506014508 61 302 0.0 0.0 0.00 0.14 0.14 1 1006.3
20260506013005 61 302 0.0 0.0 0.00 0.14 0.14 1 1006.2
20260506011601 61 26 0.0 0.0 0.00 0.14 0.14 1 1005.9
20260506010003 61 176 0.0 0.0 0.00 0.14 0.14 1 1005.8
20260506004600 61 176 0.0 0.0 0.00 0.14 0.14 1 1005.4
20260506003058 61 176 0.0 0.0 0.00 0.14 0.14 1 1005.0
20260506001602 62 176 0.0 0.0 0.00 0.14 0.14 1 1004.9
20260506000006 62 176 0.0 0.0 0.00 0.14 0.14 1 1004.8
20260505234502 63 176 0.0 0.0 0.00 0.14 0.14 1 1004.8
20260505233058 64 176 0.0 0.0 0.00 0.14 0.14 1 1004.7